Regional Weather Roundup
Issued by NWS State College, PA

Home | Current Version | Previous Version | Graphics & Text | Print | Product List | Glossary Off
Versions: 1 2 3 4 5 6 7 8 9 10 11 12 13 14 15 16 17 18 19 20 21 22 23 24 25 26 27 28 29 30 31 32 33 34 35 36 37 38 39 40 41 42 43 44 45 46 47 48 49 50

618
ASUS41 KCTP 211710
RWRCTP

REGIONAL WEATHER ROUNDUP
NATIONAL WEATHER SERVICE STATE COLLEGE PA
100 PM EDT MON AUG 21 2017

Note: "fair" indicates few or no clouds below 12,000 feet with no
significant weather and/or obstructions to visibility.

* = STATION THAT DOES NOT REPORT PRECIPITATION /E.G. RAIN...SNOW...ETC/
    THUNDER OR FOG.

PAZ002>004-007>009-013>016-020>023-029>032-211800-
WESTERN PENNSYLVANIA

CITY           SKY/WX    TMP DP  RH WIND       PRES   REMARKS
ERIE           SUNNY     81  70  69 W9        30.13S
MEADVILLE      MOSUNNY   82  65  56 W7        30.17S
FRANKLIN*      MOSUNNY   84  64  51 SW8       30.18S
NEW CASTLE     PTSUNNY   86  68  54 W8        30.16F
BEAVER COUNTY  NOT AVBL
BUTLER*        MOSUNNY   84  70  61 SW12      30.18F
PITTSBURGH INT MOSUNNY   85  67  54 SW12G17   30.17F
PITTSBURGH     MOSUNNY   84  68  58 S12       30.18F
INDIANA*       MOSUNNY   82  70  65 W13       30.22S
LATROBE        MOSUNNY   82  70  65 SW12      30.20F
WASHINGTON CO* PTSUNNY   77  70  78 CALM      30.20S
$$

PAZ004>006-010>012-017>019-024>028-033>037-041-042-045-046-049>053-211800-
CENTRAL PENNSYLVANIA

CITY           SKY/WX    TMP DP  RH WIND       PRES   REMARKS
BRADFORD       MOSUNNY   80  63  55 W9        30.19F
DUBOIS         PTSUNNY   83  65  54 W12       30.18F
CLEARFIELD     LGT RAIN  70  67  90 VRB6G18   30.21R FOG
JOHNSTOWN      CLOUDY    79  67  66 SW9       30.24F
ALTOONA        PTSUNNY   81  71  71 S8        30.21S
STATE COLLEGE  MOSUNNY   82  70  65 SW6       30.18F
WILLIAMSPORT   SUNNY     84  70  62 VRB5      30.13F
SELINSGROVE    MOSUNNY   83  72  69 VRB5      30.16F
FT INDIANTOWN  PTSUNNY   82  72  72 S6        30.17F
CAPITAL CITY   MOSUNNY   85  70  60 CALM      30.16F
HARRISBURG     MOSUNNY   85  72  65 CALM      30.15F
YORK           MOSUNNY   86  74  67 VRB6      30.16F
$$

PAZ038>040-043-044-047-048-054-055-060>062-067>071-211800-
EASTERN PENNSYLVANIA

CITY           SKY/WX    TMP DP  RH WIND       PRES   REMARKS
SCRANTON       MOSUNNY   82  68  62 VRB7      30.17F
MOUNT POCONO   MOSUNNY   79  68  69 VRB6G16   30.23F
ALLENTOWN      PTSUNNY   83  70  64 SW8       30.18S
QUAKERTOWN*    MOSUNNY   82  70  65 SW9       30.19F
READING        CLOUDY    84  74  71 SW6       30.16F
LANCASTER      PTSUNNY   85  73  67 SW8       30.17F
COATESVILLE    MOSUNNY   82  70  65 VRB7      30.21F
POTTSTOWN      PTSUNNY   83  68  60 SW7       30.19F
BLUE BELL      PTSUNNY   82  68  61 S6        30.19F
DOYLESTOWN     PTSUNNY   83  65  54 SW7       30.18F
WILLOW GROVE   NOT AVBL
NORTH PHILA    MOSUNNY   86  64  47 VRB6      30.19F
PHILADELPHIA   PTSUNNY   85  66  53 S8        30.18F
$$




USA.gov is the U.S. government's official web portal to all federal, state and local government web resources and services.